Boulder Muni, Boulder, CO, CO

12:43 AM MDT on October 22, 2019 (GMT -0600)
Boulder Muni, Boulder, CO

Weather History for KBDU - August, 2019

Change the Weather History Date:

Friday, August 30, 2019

  Actual Average Record
Temperature  
Mean Temperature 70 °F -  
Max Temperature 84 °F - 95 °F (2015)
Min Temperature 55 °F - 50 °F (2014)
Degree Days  
Heating Degree Days 0    
Month to date heating degree days 0  
Cooling Degree Days 5    
Month to date cooling degree days 283  
Growing Degree Days 20 (Base 50)    
Moisture  
Dew Point 50 °F    
Average Humidity 57    
Maximum Humidity 86    
Minimum Humidity 27    
Precipitation  
Precipitation 0.00 in - 0.00 in (2019)
Snow  
Snow 0.00 in - - ()
Snow Depth 0.00 in    
Sea Level Pressure  
Sea Level Pressure 30.18 in    
Wind  
Wind Speed 3 mph (North)    
Max Wind Speed 13 mph    
Max Gust Speed 18 mph    
Visibility 10 miles    
Events      
T = Trace of Precipitation, MM = Missing Value Source: NWS Daily Summary

Daily Weather History Graph

Daily Weather History Graph

Search for Another Location

Airport or City:

Astronomy

Aug. 30, 2019 Rise Set
Actual Time 6:26 AM MDT 7:35 PM MDT
Civil Twilight 5:58 AM MDT 8:03 PM MDT
Nautical Twilight 5:25 AM MDT 8:36 PM MDT
Astronomical Twilight 4:50 AM MDT 9:11 PM MDT
Moon 6:30 AM MDT (8/30) 8:13 PM MDT (8/30)
Length of Visible Light 14h 05m
Length of Day
13h 09m
New Moon, 0% of the Moon is Illuminated
Aug 30
New Moon
Sep 5
First Quarter
Sep 13
Full
Sep 21
Last Quarter
Sep 28
New

Hourly Weather History & Observations

Time (MDT) Temp. Heat Index Dew Point Humidity Pressure Visibility Wind Dir Wind Speed Gust Speed Precip Events Conditions
12:12 AM 62.6 °F - 48.2 °F 59% 30.22 in 10.0 mi Calm Calm - N/A   Clear
12:30 AM 62.6 °F - 48.2 °F 59% 30.22 in 10.0 mi North 3.5 mph - N/A   Clear
12:48 AM 60.8 °F - 48.2 °F 63% 30.21 in 10.0 mi NNW 3.5 mph - N/A   Clear
1:12 AM 60.8 °F - 48.2 °F 63% 30.22 in 10.0 mi Calm Calm - N/A   Clear
1:30 AM 60.8 °F - 48.2 °F 63% 30.22 in 10.0 mi Calm Calm - N/A   Clear
1:48 AM 60.8 °F - 50.0 °F 68% 30.22 in 10.0 mi Calm Calm - N/A   Clear
2:12 AM 60.8 °F - 50.0 °F 68% 30.22 in 10.0 mi Calm Calm - N/A   Clear
2:28 AM 59.0 °F - 50.0 °F 72% 30.21 in 10.0 mi NW 4.6 mph - N/A   Clear
2:52 AM 59.0 °F - 50.0 °F 72% 30.21 in 10.0 mi NW 4.6 mph - N/A   Clear
3:12 AM 59.0 °F - 50.0 °F 72% 30.21 in 10.0 mi North 3.5 mph - N/A   Clear
3:30 AM 57.2 °F - 50.0 °F 77% 30.20 in 10.0 mi Calm Calm - N/A   Clear
3:48 AM 59.0 °F - 51.8 °F 77% 30.21 in 10.0 mi NNE 3.5 mph - N/A   Clear
4:12 AM 57.2 °F - 51.8 °F 82% 30.21 in 10.0 mi West 3.5 mph - N/A   Clear
4:30 AM 59.0 °F - 51.8 °F 77% 30.21 in 10.0 mi Calm Calm - N/A   Clear
4:48 AM 57.2 °F - 51.8 °F 82% 30.21 in 10.0 mi Calm Calm - N/A   Clear
5:12 AM 59.0 °F - 51.8 °F 77% 30.21 in 10.0 mi Calm Calm - N/A   Clear
5:30 AM 57.2 °F - 51.8 °F 82% 30.21 in 10.0 mi Calm Calm - N/A   Clear
5:48 AM 57.2 °F - 51.8 °F 82% 30.20 in 10.0 mi Calm Calm - N/A   Scattered Clouds
6:12 AM 57.2 °F - 51.8 °F 82% 30.22 in 10.0 mi NW 3.5 mph - N/A   Scattered Clouds
6:30 AM 55.4 °F - 51.8 °F 88% 30.22 in 10.0 mi North 3.5 mph - N/A   Clear
6:48 AM 55.4 °F - 51.8 °F 88% 30.24 in 10.0 mi North 4.6 mph - N/A   Clear
7:12 AM 55.4 °F - 53.6 °F 94% 30.24 in 10.0 mi Calm Calm - N/A   Clear
7:30 AM 59.0 °F - 53.6 °F 82% 30.24 in 10.0 mi Calm Calm - N/A   Clear
7:48 AM 59.0 °F - 53.6 °F 82% 30.22 in 10.0 mi NW 3.5 mph - N/A   Clear
8:12 AM 60.8 °F - 53.6 °F 77% 30.23 in 10.0 mi North 5.8 mph - N/A   Clear
8:30 AM 60.8 °F - 53.6 °F 77% 30.24 in 10.0 mi North 3.5 mph - N/A   Clear
8:48 AM 60.8 °F - 53.6 °F 77% 30.24 in 10.0 mi North 4.6 mph - N/A   Clear
9:12 AM 62.6 °F - 53.6 °F 72% 30.24 in 10.0 mi North 5.8 mph - N/A   Clear
9:30 AM 64.4 °F - 53.6 °F 68% 30.24 in 10.0 mi North 5.8 mph - N/A   Clear
9:48 AM 64.4 °F - 53.6 °F 68% 30.24 in 10.0 mi NNE 5.8 mph - N/A   Clear
10:12 AM 66.2 °F - 53.6 °F 64% 30.22 in 10.0 mi North 6.9 mph - N/A   Clear
10:30 AM 68.0 °F - 53.6 °F 60% 30.22 in 10.0 mi North 5.8 mph - N/A   Clear
10:48 AM 68.0 °F - 53.6 °F 60% 30.22 in 10.0 mi North 8.1 mph - N/A   Clear
11:12 AM 68.0 °F - 53.6 °F 60% 30.22 in 10.0 mi NNE 5.8 mph - N/A   Clear
11:30 AM 68.0 °F - 53.6 °F 60% 30.21 in 10.0 mi Calm Calm - N/A   Clear
11:48 AM 69.8 °F - 53.6 °F 56% 30.21 in 10.0 mi Calm Calm - N/A   Clear
12:12 PM 69.8 °F - 53.6 °F 56% 30.19 in 10.0 mi East 3.5 mph - N/A   Clear
12:30 PM 71.6 °F - 51.8 °F 50% 30.18 in 10.0 mi Calm Calm - N/A   Clear
12:48 PM 71.6 °F - 53.6 °F 53% 30.18 in 10.0 mi ENE 4.6 mph - N/A   Clear
1:12 PM 75.2 °F - 51.8 °F 44% 30.17 in 10.0 mi SE 6.9 mph - N/A   Clear
1:30 PM 77.0 °F - 53.6 °F 44% 30.17 in 10.0 mi SE 6.9 mph - N/A   Clear
1:48 PM 77.0 °F - 53.6 °F 44% 30.17 in 10.0 mi Calm Calm - N/A   Clear
2:12 PM 77.0 °F - 53.6 °F 44% 30.16 in 10.0 mi Calm Calm - N/A   Clear
2:30 PM 80.6 °F 80.3 °F 53.6 °F 39% 30.15 in 7.0 mi Calm Calm - N/A   Scattered Clouds
2:48 PM 78.8 °F - 53.6 °F 42% 30.14 in 10.0 mi North 3.5 mph - N/A   Scattered Clouds
3:12 PM 80.6 °F - 50.0 °F 34% 30.13 in 10.0 mi SE 3.5 mph - N/A   Clear
3:30 PM 82.4 °F - 50.0 °F 32% 30.12 in 10.0 mi Calm Calm - N/A   Clear
3:48 PM 82.4 °F - 51.8 °F 35% 30.11 in 10.0 mi Calm Calm - N/A   Clear
4:12 PM 80.6 °F - 50.0 °F 34% 30.10 in 10.0 mi SSE 6.9 mph - N/A   Clear
4:30 PM 82.4 °F - 50.0 °F 32% 30.10 in 10.0 mi SE 6.9 mph - N/A   Clear
4:48 PM 84.2 °F - 46.4 °F 27% 30.09 in 10.0 mi SSE 4.6 mph - N/A   Clear
5:12 PM 80.6 °F - 46.4 °F 30% 30.10 in 10.0 mi SSW 4.6 mph - N/A   Clear
5:30 PM 82.4 °F - 46.4 °F 28% 30.09 in 10.0 mi SSE 5.8 mph - N/A   Clear
5:48 PM 82.4 °F - 48.2 °F 30% 30.08 in 10.0 mi ESE 3.5 mph - N/A   Clear
6:09 PM 82.4 °F - 48.2 °F 30% 30.09 in 10.0 mi Calm Calm - N/A   Clear
6:33 PM 80.6 °F - 50.0 °F 34% 30.10 in 10.0 mi Calm Calm - N/A   Clear
6:51 PM 78.8 °F - 50.0 °F 36% 30.10 in 10.0 mi Calm Calm - N/A   Clear
7:12 PM 78.8 °F - 51.8 °F 39% 30.11 in 10.0 mi NW 3.5 mph - N/A   Clear
7:30 PM 77.0 °F - 51.8 °F 41% 30.12 in 10.0 mi West 4.6 mph - N/A   Clear
7:48 PM 77.0 °F - 50.0 °F 39% 30.12 in 10.0 mi WSW 12.7 mph 18.4 mph N/A   Clear
8:12 PM 80.6 °F - 35.6 °F 20% 30.13 in 10.0 mi West 9.2 mph - N/A   Clear
8:30 PM 77.0 °F - 44.6 °F 32% 30.13 in 10.0 mi NNE 8.1 mph - N/A   Clear
8:48 PM 75.2 °F - 48.2 °F 38% 30.14 in 10.0 mi NNE 3.5 mph - N/A   Clear
9:12 PM 73.4 °F - 48.2 °F 41% 30.15 in 10.0 mi SW 3.5 mph - N/A   Clear
9:30 PM 73.4 °F - 50.0 °F 44% 30.15 in 10.0 mi Calm Calm - N/A   Clear
9:48 PM 71.6 °F - 48.2 °F 43% 30.17 in 10.0 mi SSW 4.6 mph - N/A   Clear
10:12 PM 73.4 °F - 42.8 °F 33% 30.17 in 10.0 mi Calm Calm - N/A   Clear
10:30 PM 73.4 °F - 37.4 °F 27% 30.18 in 10.0 mi SW 3.5 mph - N/A   Clear
10:48 PM 69.8 °F - 42.8 °F 38% 30.18 in 10.0 mi Calm Calm - N/A   Clear
11:12 PM 64.4 °F - 42.8 °F 45% 30.20 in 10.0 mi NNW 3.5 mph - N/A   Clear
11:30 PM 66.2 °F - 41.0 °F 40% 30.20 in 10.0 mi NNW 4.6 mph - N/A   Clear
11:53 PM 66.2 °F - 44.6 °F 46% 30.21 in 10.0 mi NNW 4.6 mph - N/A   Clear